• In Belarus
  • List of Countries
  • For 7 days
  • Water Temperature
  • Satellite Maps
  • Weather Map
  • Weather Widgets
  • user-avatar
    Login

    Hourly Weather Fort Pierre

    Today, 18 January, Thursday

    Time Temperature Precipitation Wind Pressure Humidity
    00:00 -4°C° 0 mm 3 mps 720 mmHg 73%
    01:00 -4°C° 0 mm 3 mps 720 mmHg 73%
    02:00 -4°C° 0 mm 3 mps 719 mmHg 73%
    03:00 -4°C° 0 mm 3 mps 719 mmHg 73%
    04:00 -4°C° 0 mm 3 mps 718 mmHg 72%
    05:00 -3°C° 0 mm 4 mps 717 mmHg 68%
    06:00 -2°C° 0 mm 3 mps 717 mmHg 66%
    07:00 -2°C° 0 mm 3 mps 717 mmHg 64%
    08:00 -2°C° 0 mm 3 mps 716 mmHg 63%
    09:00 0°C° 0 mm 3 mps 716 mmHg 64%
    10:00 +1°C° 0 mm 3 mps 716 mmHg 66%
    11:00 +3°C° 0 mm 3 mps 716 mmHg 68%
    12:00 +3°C° 0 mm 3 mps 716 mmHg 68%
    13:00 +4°C° 0 mm 3 mps 715 mmHg 68%
    14:00 +4°C° 0 mm 3 mps 715 mmHg 68%
    15:00 +3°C° 0 mm 3 mps 715 mmHg 67%
    16:00 +4°C° 0 mm 2 mps 715 mmHg 65%
    17:00 +3°C° 0 mm 2 mps 714 mmHg 63%
    18:00 +3°C° 0 mm 2 mps 714 mmHg 63%
    19:00 +3°C° 0 mm 2 mps 714 mmHg 63%
    20:00 +3°C° 0 mm 2 mps 714 mmHg 63%
    21:00 +2°C° 0 mm 2 mps 713 mmHg 63%
    22:00 +2°C° 0 mm 2 mps 713 mmHg 64%
    23:00 +2°C° 0 mm 2 mps 712 mmHg 64%

    Tomorrow, 19 January, Friday

    Time Temperature Precipitation Wind Pressure Humidity
    00:00 +2°C° 0 mm 2 mps 712 mmHg 66%
    01:00 +2°C° 0 mm 2 mps 711 mmHg 68%
    02:00 +2°C° 0 mm 2 mps 710 mmHg 69%
    03:00 +1°C° 0 mm 3 mps 710 mmHg 70%
    04:00 +1°C° 0 mm 3 mps 709 mmHg 71%
    05:00 +1°C° 0 mm 3 mps 709 mmHg 71%
    06:00 +1°C° 0 mm 3 mps 709 mmHg 70%
    07:00 0°C° 0 mm 4 mps 709 mmHg 68%
    08:00 0°C° 0 mm 4 mps 709 mmHg 67%
    09:00 +1°C° 0 mm 4 mps 709 mmHg 69%
    10:00 +3°C° 0 mm 4 mps 710 mmHg 70%
    11:00 +4°C° 0 mm 4 mps 710 mmHg 72%
    12:00 +4°C° 0 mm 4 mps 710 mmHg 74%
    13:00 +4°C° 0 mm 4 mps 710 mmHg 76%
    14:00 +4°C° 0 mm 3 mps 710 mmHg 78%
    15:00 +3°C° 0 mm 3 mps 711 mmHg 80%
    16:00 +3°C° 0 mm 2 mps 711 mmHg 82%
    17:00 +2°C° 0 mm 2 mps 711 mmHg 84%
    18:00 +2°C° 0 mm 2 mps 712 mmHg 83%
    19:00 +2°C° 0 mm 1 mps 712 mmHg 83%
    20:00 +2°C° 0 mm 1 mps 713 mmHg 83%
    21:00 +2°C° 0 mm 1 mps 713 mmHg 83%
    22:00 +2°C° 0 mm 1 mps 713 mmHg 82%
    23:00 +2°C° 0 mm 1 mps 714 mmHg 82%

    Day after tomorrow, 20 January, Saturday

    Time Temperature Precipitation Wind Pressure Humidity
    00:00 -1°C° 0 mm 2 mps 714 mmHg 83%
    01:00 -1°C° 0 mm 2 mps 714 mmHg 84%
    02:00 -1°C° 0 mm 2 mps 715 mmHg 85%
    03:00 -1°C° 0 mm 2 mps 715 mmHg 85%
    04:00 -1°C° 0 mm 2 mps 715 mmHg 86%
    05:00 -1°C° 0 mm 2 mps 715 mmHg 86%
    06:00 -1°C° 0 mm 2 mps 716 mmHg 84%
    07:00 -1°C° 0 mm 2 mps 716 mmHg 82%
    08:00 -1°C° 0 mm 2 mps 716 mmHg 80%
    09:00 +1°C° 0 mm 2 mps 717 mmHg 77%
    10:00 +2°C° 0 mm 2 mps 717 mmHg 74%
    11:00 +2°C° 0 mm 3 mps 717 mmHg 71%
    12:00 +2°C° 0 mm 3 mps 716 mmHg 71%
    13:00 +2°C° 0 mm 3 mps 716 mmHg 71%
    14:00 +2°C° 0 mm 3 mps 716 mmHg 72%
    15:00 +2°C° 0.2 mm 2 mps 716 mmHg 74%
    16:00 +2°C° 0.2 mm 2 mps 716 mmHg 76%
    17:00 +1°C° 0.2 mm 2 mps 716 mmHg 78%
    18:00 +1°C° 0.3 mm 2 mps 717 mmHg 78%
    19:00 +2°C° 0.3 mm 1 mps 717 mmHg 78%
    20:00 +2°C° 0.3 mm 1 mps 717 mmHg 78%
    21:00 +2°C° 0.1 mm 1 mps 717 mmHg 80%
    22:00 -1°C° 0.1 mm 2 mps 717 mmHg 82%
    23:00 -1°C° 0.1 mm 2 mps 717 mmHg 83%

    21 January, Sunday

    Time Temperature Precipitation Wind Pressure Humidity
    00:00 -1°C° 0.3 mm 2 mps 717 mmHg 87%
    01:00 -1°C° 0.3 mm 2 mps 717 mmHg 90%
    02:00 -1°C° 0.3 mm 2 mps 717 mmHg 94%
    03:00 -2°C° 0.4 mm 2 mps 716 mmHg 94%
    04:00 -2°C° 0.4 mm 2 mps 716 mmHg 94%
    05:00 -2°C° 0.4 mm 2 mps 716 mmHg 95%
    06:00 -2°C° 1.1 mm 3 mps 716 mmHg 95%
    07:00 -3°C° 1.1 mm 4 mps 717 mmHg 95%
    08:00 -3°C° 1.1 mm 4 mps 717 mmHg 95%
    09:00 -4°C° 0.8 mm 5 mps 717 mmHg 95%
    10:00 -4°C° 0.8 mm 5 mps 717 mmHg 95%
    11:00 -4°C° 0.8 mm 5 mps 717 mmHg 95%
    12:00 -4°C° 0.6 mm 6 mps 716 mmHg 94%
    13:00 -4°C° 0.6 mm 6 mps 715 mmHg 93%
    14:00 -4°C° 0.6 mm 7 mps 715 mmHg 93%
    15:00 -4°C° 0.7 mm 7 mps 715 mmHg 92%
    16:00 -4°C° 0.7 mm 7 mps 715 mmHg 92%
    17:00 -6°C° 0.7 mm 7 mps 716 mmHg 92%
    18:00 -6°C° 0.5 mm 7 mps 715 mmHg 92%
    19:00 -6°C° 0.5 mm 8 mps 715 mmHg 92%
    20:00 -7°C° 0.5 mm 8 mps 715 mmHg 92%
    21:00 -7°C° 0.1 mm 8 mps 715 mmHg 92%
    22:00 -7°C° 0.1 mm 8 mps 715 mmHg 91%
    23:00 -8°C° 0.1 mm 8 mps 715 mmHg 91%

    22 January, Monday

    Time Temperature Precipitation Wind Pressure Humidity
    00:00 -8°C° 0 mm 8 mps 715 mmHg 90%
    01:00 -8°C° 0 mm 7 mps 716 mmHg 90%
    02:00 -8°C° 0 mm 7 mps 716 mmHg 90%
    03:00 -9°C° 0 mm 7 mps 716 mmHg 89%
    04:00 -9°C° 0 mm 7 mps 716 mmHg 89%
    05:00 -9°C° 0 mm 6 mps 717 mmHg 89%
    06:00 -10°C° 0 mm 6 mps 717 mmHg 90%
    07:00 -10°C° 0 mm 5 mps 717 mmHg 90%
    08:00 -10°C° 0 mm 4 mps 717 mmHg 91%
    09:00 -10°C° 0 mm 5 mps 717 mmHg 90%
    10:00 -8°C° 0 mm 5 mps 717 mmHg 89%
    11:00 -8°C° 0 mm 5 mps 717 mmHg 88%
    12:00 -7°C° 0 mm 5 mps 717 mmHg 87%
    13:00 -7°C° 0 mm 5 mps 717 mmHg 86%
    14:00 -6°C° 0 mm 5 mps 717 mmHg 85%
    15:00 -7°C° 0 mm 4 mps 717 mmHg 86%
    16:00 -7°C° 0 mm 4 mps 718 mmHg 88%
    17:00 -7°C° 0 mm 3 mps 718 mmHg 89%
    18:00 -6°C° 0 mm 2 mps 718 mmHg 89%
    19:00 -7°C° 0 mm 2 mps 719 mmHg 90%
    20:00 -7°C° 0 mm 1 mps 719 mmHg 90%
    21:00 -8°C° 0 mm 1 mps 719 mmHg 90%
    22:00 -8°C° 0 mm 1 mps 719 mmHg 90%
    23:00 -8°C° 0 mm 1 mps 719 mmHg 90%

    23 January, Tuesday

    Time Temperature Precipitation Wind Pressure Humidity
    00:00 -8°C° 0 mm 1 mps 719 mmHg 90%
    01:00 -8°C° 0 mm 1 mps 719 mmHg 90%
    02:00 -9°C° 0 mm 2 mps 719 mmHg 90%
    03:00 -9°C° 0 mm 2 mps 720 mmHg 90%
    04:00 -9°C° 0 mm 2 mps 720 mmHg 89%
    05:00 -8°C° 0 mm 2 mps 720 mmHg 89%
    06:00 -8°C° 0 mm 2 mps 720 mmHg 88%
    07:00 -8°C° 0 mm 2 mps 720 mmHg 87%
    08:00 -8°C° 0 mm 3 mps 721 mmHg 86%
    09:00 -7°C° 0 mm 3 mps 721 mmHg 85%
    10:00 -5°C° 0 mm 3 mps 721 mmHg 84%
    11:00 -4°C° 0 mm 3 mps 722 mmHg 83%
    12:00 -2°C° 0 mm 3 mps 721 mmHg 84%
    13:00 -2°C° 0 mm 3 mps 721 mmHg 84%
    14:00 -1°C° 0 mm 3 mps 721 mmHg 84%
    15:00 -2°C° 0 mm 3 mps 721 mmHg 85%
    16:00 -3°C° 0 mm 2 mps 722 mmHg 85%
    17:00 -4°C° 0 mm 2 mps 722 mmHg 85%
    18:00 -5°C° 0 mm 3 mps 722 mmHg 85%
    19:00 -6°C° 0 mm 3 mps 723 mmHg 85%
    20:00 -6°C° 0 mm 3 mps 723 mmHg 86%
    21:00 -7°C° 0 mm 3 mps 724 mmHg 87%
    22:00 -8°C° 0 mm 3 mps 724 mmHg 88%
    23:00 -9°C° 0 mm 3 mps 725 mmHg 89%
    Show more